COSMOS 800

导读

COSMOS 800(宇宙800)是苏联/俄罗斯“宇宙”(Cosmos/Kosmos)系列无人卫星,1976年2月3日由苏联(CIS前身)发射入轨。宇宙系列是世界上规模最大的卫星家族,涵盖科学研究、军事侦察、技术试验等多类任务,多数为军用用途,还编入了不少试验航天器与发射失利探测器。COSMOS 800延续了该系列多用途设计,是冷战时期苏联航天探索的一环,丰富了人类对近地空间活动的实践积累。

基本信息
目录编号:
8645
目录名称:
COSMOS 800
国际标识:
1976-011A
轨道中心:
EARTH
卫星名称:
COSMOS 800
卫星全名:
--
卫星状态:
在轨 (已飞行18483 天)
发射日期:
1976-02-03 UTC
国别 :
俄罗斯(独联体) (CIS)
星等 :
--
该卫星已列入 空间交会检测服务 Space Conjunction Data Service (SCDS) ,当前飞行风险评估等级: 无高风险
轨道信息
数据来源 国际轨道数据
星历时间: 2026-09-10T20:37:31+0800
22小时前
查看轨道信息
半长轴: 7369.797km
偏心率: 0.002267
轨道倾角: 82.970°
近地点辐角 102.950°
升交点赤经 53.960°
平近点角 319.181°
近地点: 974.952km
远地点: 1008.368km
周期: 104.940分钟
每日圈数: 13.722066
详细信息
使用方式:
暂无
2D轨道图
3D轨道图
轨道高度分析图
轨道倾角分析图
轨道综合分析图
查看轨道综合分析图
与全量物体交会距离演化趋势
与全量物体交会风险概率演化趋势